Terminal Aerodrome Forecast
Issued by NWS Amarillo, TX

Home | Current Version | Previous Version | Text Only | Print | Product List | Glossary On
Versions: 1 2 3 4 5 6 7 8 9 10 11 12
996
FTUS44 KAMA 111720
TAFDHT
TAF
KDHT 111720Z 1118/1218 21008KT P6SM SKC
     FM120530 02009KT P6SM SKC=

USA.gov is the U.S. government's official web portal to all federal, state and local government web resources and services.